EST,Max TemperatureF,Mean TemperatureF,Min TemperatureF,Max Dew PointF,MeanDew PointF,Min DewpointF,Max Humidity, Mean Humidity, Min Humidity, Max Sea Level PressureIn, Mean Sea Level PressureIn, Min Sea Level PressureIn, Max VisibilityMiles, Mean VisibilityMiles, Min VisibilityMiles, Max Wind SpeedMPH, Mean Wind SpeedMPH, Max Gust SpeedMPH,PrecipitationIn, CloudCover, Events, WindDirDegrees
2012-12-1,59,46,33,46,40,32,100,82,59,30.22,30.14,30.03,10,5,0,13,6,21,0.00,6,Fog-Rain-Snow,135
2012-12-2,59,54,50,54,50,43,100,82,59,30.10,30.01,29.95,10,7,0,14,8,28,0.07,8,Fog-Rain,217
2012-12-3,62,56,50,59,55,48,100,91,72,30.11,30.04,29.96,10,4,0,15,2,24,0.01,6,Fog-Rain,182
2012-12-4,60,50,41,54,43,32,93,75,61,30.17,30.04,29.95,10,10,5,16,8,26,0.08,5,Rain,251
2012-12-5,37,30,24,32,25,21,87,72,52,30.41,30.33,30.18,10,10,10,14,6,18,0.00,0,,11
2012-12-6,37,32,28,32,29,21,87,79,69,30.30,30.08,29.96,10,10,10,7,2,,0.00,1,,122
2012-12-7,44,40,35,43,38,32,93,89,81,29.97,29.92,29.84,10,5,1,8,1,,0.07,7,Rain,92
2012-12-8,44,38,33,43,38,32,100,93,87,30.12,29.93,29.81,10,5,0,12,5,16,0.08,7,Fog-Rain,5
2012-12-9,41,37,33,41,35,32,100,92,87,30.13,29.91,29.66,10,5,0,14,8,23,0.11,8,Fog-Rain,87
2012-12-10,42,37,32,43,33,30,100,91,81,29.89,29.74,29.66,10,6,0,17,9,25,0.00,8,Fog-Rain-Snow,268
2012-12-11,33,28,24,30,25,21,93,80,64,30.19,30.04,29.89,10,8,1,12,4,18,0.07,4,Snow,222
2012-12-12,41,32,24,27,23,21,86,73,49,30.37,30.31,30.19,10,10,10,8,4,,0.00,0,,207
2012-12-13,44,34,24,27,24,21,86,69,39,30.37,30.30,30.17,10,10,7,10,2,17,0.00,0,,196
2012-12-14,50,38,26,30,27,23,93,71,43,30.25,30.19,30.15,10,10,7,7,3,,0.00,0,,203
2012-12-15,50,41,32,46,36,30,93,82,66,30.14,29.92,29.67,10,9,4,12,3,18,0.08,6,Rain,134
2012-12-16,51,46,41,50,44,36,94,85,76,29.72,29.66,29.61,10,8,2,13,6,21,0.19,8,Rain,230
2012-12-17,41,38,35,36,34,34,93,83,76,29.74,29.69,29.62,10,7,4,7,4,,0.02,8,Rain,303
2012-12-18,39,36,32,34,32,30,100,87,75,29.81,29.73,29.66,10,6,3,9,4,17,0.00,7,Rain,240
2012-12-19,42,38,35,36,33,32,93,81,66,30.08,29.97,29.71,10,7,4,12,4,17,0.00,5,,330
2012-12-20,50,41,32,46,37,30,100,88,75,29.99,29.46,29.13,10,6,2,18,12,34,0.55,8,Rain-Snow,134
2012-12-21,35,34,32,34,30,25,100,86,70,30.00,29.59,29.18,10,6,0,30,18,41,0.02,8,Rain-Snow,293
2012-12-22,32,28,23,27,23,19,93,76,69,30.16,30.08,30.00,10,10,7,21,11,33,0.00,4,,267
2012-12-23,35,27,19,28,22,16,93,82,65,30.01,29.96,29.90,10,8,5,8,2,,0.00,0,,340
2012-12-24,32,28,23,30,26,21,93,87,80,30.01,29.89,29.78,10,7,2,10,6,,0.01,5,Snow,50
2012-12-25,33,30,26,27,25,21,86,79,69,30.25,30.18,30.02,10,10,10,14,7,18,0.00,5,,26
2012-12-26,32,30,28,28,24,21,93,78,69,30.18,29.91,29.78,10,7,0,24,16,36,0.00,8,Snow,24
2012-12-27,32,28,23,27,22,18,86,78,69,30.16,30.08,29.93,10,10,10,14,8,20,0.00,8,,301
2012-12-28,32,26,21,27,25,19,93,88,80,30.15,30.05,29.88,10,6,1,8,1,,0.00,7,Snow,100
2012-12-29,32,30,28,28,27,25,93,89,80,30.12,29.89,29.80,10,4,1,13,6,17,0.02,8,Snow,314
2012-12-30,28,24,21,23,18,14,86,77,59,30.36,30.27,30.12,10,9,5,15,9,21,0.00,4,,230
2012-12-31,33,28,24,30,25,18,93,79,64,30.21,30.06,29.99,10,9,1,14,8,21,0.00,4,Snow,231